TimeCDT,TemperatureF,Dew PointF,Humidity,Sea Level PressureIn,VisibilityMPH,Wind Direction,Wind SpeedMPH,Gust SpeedMPH,PrecipitationIn,Events,Conditions,WindDirDegrees,DateUTC
12:51 AM,53.1,28.9,40,29.61,10.0,West,10.4,-,N/A,,Clear,270,2013-03-18 05:51:00
1:51 AM,50.0,34.0,54,29.65,10.0,WNW,13.8,-,N/A,,Clear,290,2013-03-18 06:51:00
2:51 AM,48.9,33.1,54,29.70,10.0,WNW,11.5,-,N/A,,Clear,290,2013-03-18 07:51:00
3:51 AM,46.9,34.0,61,29.76,10.0,NNE,8.1,16.1,N/A,,Clear,20,2013-03-18 08:51:00
4:51 AM,42.1,35.1,76,29.81,10.0,North,19.6,-,N/A,,Clear,10,2013-03-18 09:51:00
5:51 AM,39.9,32.0,73,29.86,10.0,North,16.1,24.2,N/A,,Clear,10,2013-03-18 10:51:00
6:51 AM,39.9,28.0,63,29.88,10.0,North,16.1,26.5,N/A,,Clear,10,2013-03-18 11:51:00
7:51 AM,37.9,26.1,62,29.92,10.0,NNE,10.4,-,N/A,,Clear,20,2013-03-18 12:51:00
8:51 AM,39.0,25.0,57,29.99,10.0,NNE,6.9,-,N/A,,Clear,20,2013-03-18 13:51:00
9:51 AM,42.1,25.0,51,30.01,10.0,North,9.2,-,N/A,,Clear,360,2013-03-18 14:51:00
10:51 AM,46.0,19.9,35,30.02,10.0,NE,12.7,-,N/A,,Clear,40,2013-03-18 15:51:00
11:51 AM,48.0,16.0,28,30.02,10.0,ENE,12.7,17.3,N/A,,Clear,60,2013-03-18 16:51:00
12:51 PM,50.0,15.1,25,30.00,10.0,NE,8.1,16.1,N/A,,Clear,50,2013-03-18 17:51:00
1:51 PM,52.0,12.9,21,29.99,10.0,Variable,3.5,-,N/A,,Clear,0,2013-03-18 18:51:00
2:51 PM,53.1,12.9,20,29.98,10.0,Variable,3.5,-,N/A,,Clear,0,2013-03-18 19:51:00
3:51 PM,55.9,12.9,18,29.96,10.0,Variable,4.6,-,N/A,,Clear,0,2013-03-18 20:51:00
4:51 PM,57.0,14.0,18,29.95,10.0,Variable,3.5,-,N/A,,Clear,0,2013-03-18 21:51:00
5:51 PM,57.9,15.1,19,29.93,10.0,SSW,4.6,-,N/A,,Clear,210,2013-03-18 22:51:00
6:51 PM,57.9,16.0,19,29.92,10.0,SE,8.1,-,N/A,,Clear,140,2013-03-18 23:51:00
7:51 PM,57.0,17.1,21,29.90,10.0,SE,5.8,-,N/A,,Clear,130,2013-03-19 00:51:00
8:51 PM,54.0,19.9,26,29.89,10.0,SE,11.5,-,N/A,,Clear,140,2013-03-19 01:51:00
9:51 PM,51.1,19.9,29,29.91,10.0,ESE,10.4,-,N/A,,Clear,120,2013-03-19 02:51:00
10:51 PM,50.0,21.0,32,29.93,10.0,SE,9.2,-,N/A,,Clear,130,2013-03-19 03:51:00
11:51 PM,48.0,21.9,36,29.94,10.0,SE,12.7,19.6,N/A,,Clear,140,2013-03-19 04:51:00